Location: Burgberg
(50.1428°N, 11.0671°E)
Time: 21:54:37
(UTC+00:00)

Cosmos 2341 Rocket - Pass Details

Date: 26 January 2020
Orbit: 967 x 1005 km, 82.9° (Epoch: 25 February)

Event Time Altitude Azimuth Distance (km) Brightness Sun altitude
Rises 04:50:56 0° 345° (NNW) 3,697 6.8 -20.2°
Reaches altitude 10° 04:53:35 10° 339° (NNW) 2,740 6.1 -19.8°
Maximum altitude 04:59:25 42° 271° (W) 1,352 4.3 -18.9°
Drops below altitude 10° 05:05:11 10° 203° (SSW) 2,706 6.2 -18.0°
Sets 05:07:47 0° 196° (SSW) 3,646 6.9 -17.6°
